• în România
  • Lista ţărilor
  • Pe 7 zile
  • Temperatura apei
  • Hartă satelitară
  • Meteo pe hartă
  • Widget-uri
  • user-avatar
    Intrare

    Meteo pe oră la Birao

    Astăzi, 17 Octombrie, Miercuri

    Timp Temperatura Precipitaţii Vânt Presiune Umiditate
    00:00 +24°C° 0 mm 0 m/s 717 mmHg 32%
    01:00 +24°C° 0 mm 0 m/s 716 mmHg 33%
    02:00 +23°C° 0 mm 0 m/s 716 mmHg 34%
    03:00 +23°C° 0 mm 0 m/s 716 mmHg 35%
    04:00 +22°C° 0 mm 0 m/s 716 mmHg 37%
    05:00 +22°C° 0 mm 0 m/s 716 mmHg 38%
    06:00 +23°C° 0 mm 0 m/s 717 mmHg 38%
    07:00 +24°C° 0 mm 0 m/s 717 mmHg 37%
    08:00 +26°C° 0 mm 0 m/s 718 mmHg 37%
    09:00 +31°C° 0 mm 1 m/s 718 mmHg 32%
    10:00 +34°C° 0 mm 1 m/s 718 mmHg 26%
    11:00 +37°C° 0 mm 1 m/s 718 mmHg 21%
    12:00 +39°C° 0 mm 1 m/s 718 mmHg 20%
    13:00 +39°C° 0 mm 2 m/s 717 mmHg 18%
    14:00 +40°C° 0 mm 2 m/s 716 mmHg 17%
    15:00 +40°C° 0 mm 2 m/s 715 mmHg 19%
    16:00 +39°C° 0 mm 1 m/s 715 mmHg 21%
    17:00 +39°C° 0 mm 1 m/s 714 mmHg 23%
    18:00 +35°C° 0 mm 1 m/s 714 mmHg 25%
    19:00 +32°C° 0 mm 1 m/s 715 mmHg 26%
    20:00 +28°C° 0 mm 0 m/s 715 mmHg 28%
    21:00 +29°C° 0 mm 1 m/s 715 mmHg 29%
    22:00 +29°C° 0 mm 1 m/s 715 mmHg 30%
    23:00 +28°C° 0 mm 1 m/s 716 mmHg 32%

    Mâine, 18 Octombrie, Joi

    Timp Temperatura Precipitaţii Vânt Presiune Umiditate
    00:00 +27°C° 0 mm 1 m/s 715 mmHg 33%
    01:00 +27°C° 0 mm 1 m/s 715 mmHg 35%
    02:00 +26°C° 0 mm 1 m/s 715 mmHg 36%
    03:00 +26°C° 0 mm 1 m/s 715 mmHg 38%
    04:00 +25°C° 0 mm 1 m/s 715 mmHg 39%
    05:00 +25°C° 0 mm 1 m/s 715 mmHg 41%
    06:00 +26°C° 0 mm 1 m/s 715 mmHg 41%
    07:00 +27°C° 0 mm 1 m/s 716 mmHg 41%
    08:00 +28°C° 0 mm 1 m/s 717 mmHg 40%
    09:00 +31°C° 0 mm 1 m/s 717 mmHg 33%
    10:00 +35°C° 0 mm 2 m/s 717 mmHg 25%
    11:00 +38°C° 0 mm 3 m/s 718 mmHg 17%
    12:00 +39°C° 0 mm 3 m/s 717 mmHg 16%
    13:00 +40°C° 0 mm 2 m/s 716 mmHg 15%
    14:00 +41°C° 0 mm 2 m/s 715 mmHg 14%
    15:00 +40°C° 0 mm 2 m/s 714 mmHg 16%
    16:00 +39°C° 0 mm 1 m/s 714 mmHg 18%
    17:00 +39°C° 0 mm 1 m/s 713 mmHg 20%
    18:00 +35°C° 0 mm 1 m/s 714 mmHg 22%
    19:00 +32°C° 0 mm 1 m/s 714 mmHg 23%
    20:00 +30°C° 0 mm 1 m/s 714 mmHg 25%
    21:00 +29°C° 0 mm 1 m/s 714 mmHg 26%
    22:00 +26°C° 0 mm 0 m/s 714 mmHg 27%
    23:00 +26°C° 0 mm 0 m/s 714 mmHg 28%

    Poimâine, 19 Octombrie, Vineri

    Timp Temperatura Precipitaţii Vânt Presiune Umiditate
    00:00 +27°C° 0 mm 1 m/s 714 mmHg 29%
    01:00 +27°C° 0 mm 1 m/s 714 mmHg 30%
    02:00 +26°C° 0 mm 1 m/s 714 mmHg 31%
    03:00 +26°C° 0 mm 1 m/s 714 mmHg 32%
    04:00 +25°C° 0 mm 1 m/s 714 mmHg 33%
    05:00 +25°C° 0 mm 1 m/s 714 mmHg 34%
    06:00 +26°C° 0 mm 1 m/s 715 mmHg 34%
    07:00 +27°C° 0 mm 1 m/s 716 mmHg 34%
    08:00 +28°C° 0 mm 1 m/s 717 mmHg 34%
    09:00 +31°C° 0 mm 2 m/s 717 mmHg 28%
    10:00 +35°C° 0 mm 3 m/s 718 mmHg 22%
    11:00 +38°C° 0 mm 4 m/s 718 mmHg 16%
    12:00 +39°C° 0 mm 3 m/s 717 mmHg 15%
    13:00 +40°C° 0 mm 3 m/s 716 mmHg 14%
    14:00 +41°C° 0 mm 2 m/s 715 mmHg 13%
    15:00 +40°C° 0 mm 2 m/s 715 mmHg 15%
    16:00 +40°C° 0 mm 2 m/s 715 mmHg 17%
    17:00 +39°C° 0 mm 1 m/s 714 mmHg 19%
    18:00 +35°C° 0 mm 1 m/s 715 mmHg 20%
    19:00 +32°C° 0 mm 1 m/s 715 mmHg 22%
    20:00 +30°C° 0 mm 1 m/s 715 mmHg 23%
    21:00 +29°C° 0 mm 1 m/s 715 mmHg 24%
    22:00 +29°C° 0 mm 1 m/s 716 mmHg 25%
    23:00 +28°C° 0 mm 1 m/s 716 mmHg 26%

    20 Octombrie, Sâmbătă

    Timp Temperatura Precipitaţii Vânt Presiune Umiditate
    00:00 +27°C° 0 mm 1 m/s 716 mmHg 30%
    01:00 +26°C° 0 mm 2 m/s 715 mmHg 34%
    02:00 +26°C° 0 mm 2 m/s 715 mmHg 38%
    03:00 +25°C° 0 mm 2 m/s 715 mmHg 48%
    04:00 +24°C° 0 mm 2 m/s 715 mmHg 57%
    05:00 +24°C° 0 mm 1 m/s 716 mmHg 67%
    06:00 +25°C° 0 mm 1 m/s 716 mmHg 67%
    07:00 +26°C° 0 mm 1 m/s 717 mmHg 68%
    08:00 +27°C° 0 mm 1 m/s 718 mmHg 68%
    09:00 +29°C° 0 mm 1 m/s 718 mmHg 60%
    10:00 +32°C° 0 mm 1 m/s 718 mmHg 51%
    11:00 +34°C° 0 mm 1 m/s 719 mmHg 43%
    12:00 +35°C° 0 mm 1 m/s 718 mmHg 39%
    13:00 +36°C° 0 mm 1 m/s 717 mmHg 35%
    14:00 +36°C° 0 mm 1 m/s 716 mmHg 31%
    15:00 +36°C° 0 mm 1 m/s 716 mmHg 33%
    16:00 +35°C° 0 mm 1 m/s 716 mmHg 35%
    17:00 +35°C° 0 mm 2 m/s 715 mmHg 37%
    18:00 +34°C° 0 mm 2 m/s 716 mmHg 41%
    19:00 +31°C° 0 mm 2 m/s 716 mmHg 44%
    20:00 +29°C° 0 mm 2 m/s 716 mmHg 48%
    21:00 +29°C° 0 mm 2 m/s 716 mmHg 49%
    22:00 +29°C° 0 mm 2 m/s 717 mmHg 50%
    23:00 +28°C° 0 mm 2 m/s 717 mmHg 51%

    21 Octombrie, Duminică

    Timp Temperatura Precipitaţii Vânt Presiune Umiditate
    00:00 +28°C° 0 mm 1 m/s 716 mmHg 53%
    01:00 +27°C° 0 mm 1 m/s 716 mmHg 55%
    02:00 +26°C° 0 mm 1 m/s 716 mmHg 58%
    03:00 +26°C° 0 mm 1 m/s 716 mmHg 60%
    04:00 +26°C° 0 mm 1 m/s 716 mmHg 62%
    05:00 +25°C° 0 mm 1 m/s 716 mmHg 65%
    06:00 +26°C° 0 mm 1 m/s 717 mmHg 63%
    07:00 +27°C° 0 mm 1 m/s 717 mmHg 62%
    08:00 +28°C° 0 mm 1 m/s 718 mmHg 61%
    09:00 +31°C° 0 mm 1 m/s 718 mmHg 53%
    10:00 +34°C° 0 mm 1 m/s 718 mmHg 45%
    11:00 +37°C° 0 mm 1 m/s 718 mmHg 37%
    12:00 +37°C° 0 mm 1 m/s 717 mmHg 33%
    13:00 +39°C° 0 mm 1 m/s 716 mmHg 29%
    14:00 +40°C° 0 mm 1 m/s 716 mmHg 25%
    15:00 +39°C° 0 mm 1 m/s 715 mmHg 26%
    16:00 +37°C° 0 mm 1 m/s 715 mmHg 28%
    17:00 +37°C° 0 mm 1 m/s 715 mmHg 29%
    18:00 +35°C° 0 mm 1 m/s 715 mmHg 32%
    19:00 +33°C° 0 mm 1 m/s 715 mmHg 35%
    20:00 +31°C° 0 mm 1 m/s 716 mmHg 39%
    21:00 +30°C° 0 mm 1 m/s 716 mmHg 43%
    22:00 +29°C° 0 mm 2 m/s 716 mmHg 48%
    23:00 +28°C° 0 mm 2 m/s 716 mmHg 52%

    22 Octombrie, Luni

    Timp Temperatura Precipitaţii Vânt Presiune Umiditate
    00:00 +28°C° 0 mm 2 m/s 715 mmHg 56%
    01:00 +28°C° 0 mm 2 m/s 715 mmHg 59%
    02:00 +27°C° 0 mm 2 m/s 715 mmHg 62%
    03:00 +27°C° 0 mm 1 m/s 715 mmHg 63%
    04:00 +26°C° 0 mm 1 m/s 715 mmHg 65%
    05:00 +26°C° 0 mm 1 m/s 715 mmHg 66%
    06:00 +27°C° 0 mm 1 m/s 716 mmHg 62%
    07:00 +29°C° 0 mm 1 m/s 716 mmHg 58%
    08:00 +30°C° 0 mm 1 m/s 717 mmHg 54%
    09:00 +33°C° 0 mm 1 m/s 717 mmHg 46%
    10:00 +36°C° 0 mm 2 m/s 717 mmHg 38%
    11:00 +39°C° 0 mm 2 m/s 717 mmHg 30%
    12:00 +39°C° 0 mm 2 m/s 716 mmHg 28%
    13:00 +40°C° 0 mm 2 m/s 715 mmHg 25%
    14:00 +40°C° 0 mm 2 m/s 714 mmHg 23%
    15:00 +39°C° 0 mm 2 m/s 714 mmHg 26%
    16:00 +37°C° 0 mm 1 m/s 714 mmHg 29%
    17:00 +34°C° 0 mm 0 m/s 714 mmHg 32%
    18:00 +35°C° 0 mm 1 m/s 714 mmHg 33%
    19:00 +34°C° 0 mm 1 m/s 714 mmHg 35%
    20:00 +33°C° 0 mm 1 m/s 715 mmHg 36%
    21:00 +32°C° 0.1 mm 1 m/s 715 mmHg 41%
    22:00 +31°C° 0.1 mm 2 m/s 715 mmHg 45%
    23:00 +29°C° 0.1 mm 2 m/s 715 mmHg 50%
    Arată mai mult